2000 WM63 

Epoch 2000 Dec. 2.0 TT = JDT 2451880.5                  Nakano

M 134.66130              (2000.0)            P               Q

n   0.94348968     Peri.  214.45924     +0.29297428     +0.89680891

a   1.0295433      Node    74.58155     -0.78146678     +0.42437501

e   0.1564817      Incl.   20.11393     -0.55088632     -0.12505853

P   1.04           H   19.4           G   0.15           U   *

Residuals in seconds of arc 

001126 704  0.2+  0.2+    001127 704  0.2+  0.2+    001128 557  0.1-  1.1-  

001126 704  0.4+  0.1+    001127 704  0.2+  0.2+    001129 918  0.0   0.0   

001126 704  1.3-  0.5-    001127 704  0.2-  0.6-    001129 918  0.5-  0.6+  

001126 704  0.3-  0.3-    001127 704  0.4+  0.1+    001129 918  0.8-  0.5-  

001126 704  0.0   0.5+    001127 704  0.1-  0.1-    001129 853  0.1-  0.1+  

001127 704  0.3-  0.3-    001127 704  0.5+  0.2-    001129 853  0.1+  0.1-  

001127 704  0.0   0.3+    001127 704  0.1+  0.7+    001129 853  0.3+  0.1-  

001127 704  0.1-  0.1+    001128 118  0.2+  0.4-    001129 711 (3.0+  9.0-) 

001127 704  0.2-  0.7+    001128 118  0.3+  0.5+    001129 711  0.2+  0.2-  

001127 704  0.4+  0.0     001128 118  0.1+  0.2-    001129 711  0.2-  1.6-  

001127 704  0.0   0.2-    001128 046  0.6+  0.3-    001129 704  0.2+  0.4+  

001127 704  0.2+  0.0     001128 046  1.2+  1.4-    001129 704  0.0   0.2+  

001127 704  0.3+  0.0     001128 046  0.5+  1.0-    001129 704  1.9-  1.2+  

001127 853  0.0   0.1-    001128 046  0.7+  0.4-    001205 360  0.0   0.0   

001127 853  0.1+  0.1+    001128 046  1.4+  0.3-    001205 360  0.2+  0.3+  

001127 853  0.0   0.0     001128 046  1.0-  1.4+    001205 360  0.2+  0.2-  

001127 704  0.2-  0.3-    001128 046  0.5-  0.7+    001206 300  0.6-  0.6+  

001127 704  0.1+  0.1+    001128 046  0.9+  1.0+    001206 300  0.7-  0.4+  

001127 704  0.3-  0.1+    001128 046  0.0   0.1-    001206 300  0.3-  0.3+  

001127 704  0.1-  0.4+    001128 557  1.5-  0.3+    001206 300  0.7+  0.4-  

001127 704  0.1-  0.3+    001128 557  0.6-  0.1-    001206 300  0.8+  1.0-  

  

NAKANO

         **** Don't distribute anyone except personal use only ****

                (C) Copyright 2000 OAA/ComputingSection

write mail from CFAD0::NAKANO on 2000-12-07 05:14:29(JST).

 



–ß‚è‚Ü‚·B